Regional Weather Roundup
Issued by NWS

Home | Current Version | Previous Version | Graphics & Text | Print | Product List | Glossary On
Versions: 1 2 3 4 5 6 7 8 9 10 11 12 13 14 15 16 17 18 19 20 21 22 23 24 25 26 27 28 29 30 31 32 33 34 35 36 37 38 39 40 41 42 43 44 45 46 47 48 49 50
292
ASUS43 KOAX 252202
RWRNE

WEATHER ROUNDUP FOR NEBRASKA
NATIONAL WEATHER SERVICE OMAHA NE
400 PM CST SAT FEB 25 2017

NOTES: SATELLITE DATA IS BEING USED TO AUGMENT CLOUD COVER ABOVE
       12000 FEET.
       "FAIR" INDICATES FEW OR NO CLOUDS BELOW 12,000 FEET WITH NO
       SIGNIFICANT WEATHER AND/OR OBSTRUCTIONS TO VISIBILITY.

  * THESE STATIONS DO NOT REPORT WEATHER SUCH AS RAIN...SNOW OR FOG.

NEZ001>004-019>022-054>056-252300-
NEBRASKA PANHANDLE

CITY           SKY/WX    TMP DP  RH WIND       PRES   REMARKS
SCOTTSBLUFF    CLOUDY    29  13  51 W7        29.84F WCI  22
ALLIANCE       CLOUDY    23  14  68 W13       29.82F WCI  11
CHADRON        SUNNY     28  14  55 W10       29.82F WCI  19
KIMBALL        CLOUDY    29  14  54 NW8       29.82F WCI  21
SIDNEY         CLOUDY    28  12  51 W14       29.86S WCI  17
$$

NEZ057>060-069>072-079>082-252300-
SOUTHWEST NEBRASKA

CITY           SKY/WX    TMP DP  RH WIND       PRES   REMARKS
NORTH PLATTE   SUNNY     34  21  59 NW13      29.88F WCI  25
IMPERIAL       SUNNY     36  10  34 NW17G28   29.89F WCI  26
LEXINGTON      SUNNY     37  22  55 W18G24    29.91S WCI  26
MCCOOK         MOSUNNY   41  19  41 NW18G24   29.92F
OGALLALA       CLOUDY    33  17  53 NW16      29.88F WCI  22
$$

NEZ005>010-023>029-035>040-094-252300-
NORTH CENTRAL NEBRASKA

CITY           SKY/WX    TMP DP  RH WIND       PRES   REMARKS
VALENTINE      SUNNY     29  19  66 W12       29.84F WCI  19
AINSWORTH      SUNNY     30  21  69 W14       29.84F WCI  19
BROKEN BOW     SUNNY     33  21  61 W10       29.88S WCI  25
O`NEILL        SUNNY     30  20  66 SW13      29.88S WCI  20
ORD            SUNNY     34  19  54 W14       29.88F WCI  25
THEDFORD       SUNNY     31  20  66 W9        29.87S WCI  22
$$

NEZ041-046>049-061>064-073>077-083>087-252300-
SOUTH CENTRAL NEBRASKA

CITY           SKY/WX    TMP DP  RH WIND       PRES   REMARKS
GRAND ISLAND   PTSUNNY   37  28  70 S14       29.92F WCI  28
AURORA         SUNNY     35  25  65 S16       29.93F WCI  25
HASTINGS       CLOUDY    38  25  59 S9        29.93F WCI  31
HEBRON         SUNNY     41  22  48 S10G16    29.99F
HOLDREGE       SUNNY     40  19  42 W16       29.92R WCI  31
KEARNEY *      SUNNY     39  19  45 W15G22    29.92S WCI  31
YORK           SUNNY     32  25  74 S16       29.96F WCI  21
$$

NEZ011>018-030>034-042>045-252300-
NORTHEAST NEBRASKA

CITY           SKY/WX    TMP DP  RH WIND       PRES   REMARKS
NORFOLK        SUNNY     29  19  66 S23       29.92F WCI  15
ALBION         PTSUNNY   36  22  57 SW15G22   29.91F WCI  26
BLAIR          MOSUNNY   31  17  54 S17       29.99F WCI  20
FREMONT        SUNNY     30  18  60 S13G20    30.00F WCI  20
TEKAMAH        CLOUDY    29  19  66 S13       30.01F WCI  19
WAYNE          SUNNY     29  20  67 S13       29.93F WCI  19
$$

NEZ050>053-065>068-078-088>093-252300-
SOUTHEAST NEBRASKA

CITY           SKY/WX    TMP DP  RH WIND       PRES   REMARKS
LINCOLN        SUNNY     35  21  56 S13       30.02F WCI  26
OMAHA EPPLEY   MOSUNNY   33  13  43 S14       30.03F WCI  23
BEATRICE       SUNNY     39  20  46 SW13G21   30.01F WCI  31
FALLS CITY     SUNNY     40  16  37 SW12G18   30.05F WCI  33
NEBRASKA CITY  SUNNY     36  15  43 SW12      30.03F WCI  27
PLATTSMOUTH    SUNNY     34  17  50 SW12      30.03F WCI  25
$$

NEZ044-045-051>053-067-252300-
OMAHA AREA

CITY           SKY/WX    TMP DP  RH WIND       PRES   REMARKS
OMAHA EPPLEY   MOSUNNY   33  13  43 S14       30.03F WCI  23
BLAIR          MOSUNNY   31  17  54 S17       29.99F WCI  20
FREMONT        SUNNY     30  18  60 S13G20    30.00F WCI  20
MILLARD        SUNNY     34  16  48 S10G16    30.02F WCI  26
OFFUTT AFB     PTSUNNY   34  15  46 S13       30.02F WCI  25
PLATTSMOUTH    SUNNY     34  17  50 SW12      30.03F WCI  25
WAHOO          FAIR      31  19  60 S12       30.00F WCI  22
$$




USA.gov is the U.S. government's official web portal to all federal, state and local government web resources and services.